| time (UTC) | temp C | wind direction | speed KPH | gust KPH | rain 1hr cm | rain 24hr cm | rain mn cm | humidity % | barometer mb |
| 20260509011536 | 6 | 0 | 0.0 | 0.0 | 0.00 | 0.00 | 0.00 | 72 | 1005.6 |
| 20260509010028 | 6 | 0 | 0.0 | 0.0 | 0.00 | 0.00 | 0.00 | 71 | 1005.9 |
| 20260509004533 | 6 | 0 | 0.0 | 0.0 | 0.00 | 0.00 | 0.00 | 69 | 1006.1 |
| 20260509003033 | 6 | 0 | 0.0 | 0.0 | 0.00 | 0.00 | 0.00 | 69 | 1006.3 |
| 20260509001528 | 6 | 0 | 0.0 | 1.6 | 0.00 | 0.00 | 0.00 | 71 | 1006.5 |
| 20260509000029 | 6 | 0 | 0.0 | 0.0 | 0.00 | 0.00 | 0.00 | 69 | 1006.8 |
| 20260508234531 | 7 | 0 | 0.0 | 0.0 | 0.00 | 0.00 | 0.00 | 67 | 1007.0 |
| 20260508233030 | 7 | 0 | 0.0 | 0.0 | 0.00 | 0.00 | 0.00 | 67 | 1007.1 |
| 20260508231530 | 7 | 0 | 0.0 | 1.6 | 0.00 | 0.00 | 0.00 | 66 | 1007.3 |
| 20260508230047 | 7 | 0 | 0.0 | 6.4 | 0.00 | 0.00 | 0.00 | 68 | 1007.5 |
| 20260508224552 | 6 | 0 | 0.0 | 1.6 | 0.00 | 0.00 | 0.00 | 70 | 1007.7 |
| 20260508223034 | 6 | 234 | 0.0 | 4.8 | 0.00 | 0.00 | 0.00 | 70 | 1007.8 |
| 20260508221530 | 6 | 0 | 0.0 | 0.0 | 0.00 | 0.00 | 0.00 | 69 | 1007.9 |
| 20260508220031 | 6 | 0 | 0.0 | 0.0 | 0.00 | 0.00 | 0.00 | 64 | 1008.1 |
| 20260508214527 | 6 | 0 | 0.0 | 4.8 | 0.00 | 0.00 | 0.00 | 64 | 1008.2 |
| 20260508213029 | 6 | 0 | 0.0 | 0.0 | 0.00 | 0.00 | 0.00 | 63 | 1008.4 |
| 20260508211531 | 7 | 0 | 0.0 | 0.0 | 0.00 | 0.00 | 0.00 | 65 | 1008.4 |
| 20260508210032 | 6 | 0 | 0.0 | 0.0 | 0.00 | 0.00 | 0.00 | 67 | 1008.6 |
| 20260508204530 | 6 | 0 | 0.0 | 9.7 | 0.00 | 0.00 | 0.00 | 69 | 1008.9 |
| 20260508203028 | 6 | 0 | 0.0 | 1.6 | 0.00 | 0.00 | 0.00 | 68 | 1009.1 |
| 20260508201531 | 6 | 0 | 0.0 | 0.0 | 0.00 | 0.00 | 0.00 | 66 | 1009.2 |
| 20260508200030 | 6 | 0 | 0.0 | 0.0 | 0.00 | 0.00 | 0.00 | 65 | 1009.2 |
| 20260508194530 | 6 | 0 | 0.0 | 0.0 | 0.00 | 0.00 | 0.00 | 69 | 1009.3 |
| 20260508193055 | 5 | 0 | 1.6 | 17.7 | 0.00 | 0.00 | 0.00 | 67 | 1009.6 |
| 20260508191530 | 5 | 0 | 0.0 | 6.4 | 0.00 | 0.00 | 0.00 | 69 | 1009.7 |
| 20260508190036 | 6 | 0 | 0.0 | 1.6 | 0.00 | 0.00 | 0.00 | 69 | 1009.8 |
| 20260508184530 | 6 | 0 | 0.0 | 12.9 | 0.00 | 0.00 | 0.00 | 72 | 1010.0 |
| 20260508183031 | 5 | 34 | 0.0 | 12.9 | 0.00 | 0.00 | 0.00 | 72 | 1010.3 |
| 20260508181530 | 5 | 64 | 0.0 | 12.9 | 0.00 | 0.00 | 0.00 | 73 | 1010.5 |
| 20260508180031 | 5 | 0 | 0.0 | 6.4 | 0.00 | 0.00 | 0.00 | 75 | 1010.7 |
| 20260508174543 | 5 | 0 | 0.0 | 4.8 | 0.00 | 0.00 | 0.00 | 75 | 1010.9 |
| 20260508173030 | 5 | 0 | 0.0 | 4.8 | 0.00 | 0.00 | 0.00 | 77 | 1011.1 |
| 20260508171531 | 5 | 0 | 0.0 | 6.4 | 0.00 | 0.00 | 0.00 | 77 | 1011.2 |
| 20260508170032 | 4 | 0 | 0.0 | 3.2 | 0.00 | 0.00 | 0.00 | 81 | 1011.4 |
| 20260508164536 | 3 | 0 | 0.0 | 0.0 | 0.00 | 0.00 | 0.00 | 82 | 1011.6 |
| 20260508163033 | 3 | 0 | 0.0 | 0.0 | 0.00 | 0.00 | 0.00 | 83 | 1011.8 |
| 20260508161539 | 3 | 0 | 0.0 | 0.0 | 0.00 | 0.00 | 0.00 | 84 | 1011.9 |
| 20260508160033 | 3 | 0 | 0.0 | 0.0 | 0.00 | 0.00 | 0.00 | 85 | 1012.0 |
| 20260508154528 | 2 | 0 | 0.0 | 0.0 | 0.00 | 0.00 | 0.00 | 86 | 1012.1 |
| 20260508153037 | 2 | 0 | 0.0 | 0.0 | 0.00 | 0.00 | 0.00 | 86 | 1012.1 |
| 20260508151538 | 2 | 0 | 0.0 | 0.0 | 0.00 | 0.00 | 0.00 | 86 | 1012.2 |
| 20260508150030 | 2 | 0 | 0.0 | 0.0 | 0.00 | 0.00 | 0.00 | 86 | 1012.5 |
| 20260508144530 | 2 | 0 | 0.0 | 0.0 | 0.00 | 0.00 | 0.00 | 85 | 1012.6 |
| 20260508143031 | 2 | 0 | 0.0 | 0.0 | 0.00 | 0.00 | 0.00 | 86 | 1012.7 |
| 20260508141532 | 2 | 0 | 0.0 | 0.0 | 0.00 | 0.00 | 0.00 | 85 | 1013.0 |
| 20260508140030 | 2 | 0 | 0.0 | 0.0 | 0.00 | 0.00 | 0.00 | 85 | 1013.1 |
| 20260508134527 | 2 | 0 | 0.0 | 0.0 | 0.00 | 0.00 | 0.00 | 84 | 1013.3 |
| 20260508133051 | 2 | 0 | 0.0 | 0.0 | 0.00 | 0.00 | 0.00 | 84 | 1013.5 |
| 20260508131528 | 2 | 0 | 0.0 | 0.0 | 0.00 | 0.00 | 0.00 | 84 | 1013.6 |
| 20260508130029 | 2 | 0 | 0.0 | 0.0 | 0.00 | 0.00 | 0.00 | 84 | 1013.8 |
| 20260508124532 | 2 | 0 | 0.0 | 0.0 | 0.00 | 0.00 | 0.00 | 84 | 1013.9 |
| 20260508123028 | 2 | 0 | 0.0 | 0.0 | 0.00 | 0.00 | 0.00 | 84 | 1014.1 |
| 20260508121533 | 2 | 0 | 0.0 | 0.0 | 0.00 | 0.00 | 0.00 | 84 | 1014.3 |
| 20260508120031 | 3 | 0 | 0.0 | 0.0 | 0.00 | 0.00 | 0.00 | 84 | 1014.4 |
| 20260508114530 | 3 | 0 | 0.0 | 0.0 | 0.00 | 0.00 | 0.00 | 84 | 1014.7 |
| 20260508113034 | 3 | 0 | 0.0 | 0.0 | 0.00 | 0.00 | 0.00 | 83 | 1014.7 |
| 20260508111529 | 3 | 0 | 0.0 | 0.0 | 0.00 | 0.00 | 0.00 | 83 | 1015.0 |
| 20260508110032 | 3 | 0 | 0.0 | 9.7 | 0.00 | 0.00 | 0.00 | 82 | 1015.1 |
| 20260508104528 | 3 | 0 | 0.0 | 0.0 | 0.00 | 0.00 | 0.00 | 82 | 1015.3 |
| 20260508103029 | 3 | 0 | 0.0 | 0.0 | 0.00 | 0.00 | 0.00 | 81 | 1015.4 |
| 20260508101542 | 3 | 0 | 0.0 | 0.0 | 0.00 | 0.00 | 0.00 | 79 | 1015.5 |
| 20260508100031 | 4 | 0 | 0.0 | 0.0 | 0.00 | 0.00 | 0.00 | 77 | 1015.5 |
| 20260508094530 | 4 | 0 | 0.0 | 0.0 | 0.00 | 0.00 | 0.00 | 76 | 1015.6 |
| 20260508093031 | 4 | 0 | 0.0 | 0.0 | 0.00 | 0.00 | 0.00 | 73 | 1015.5 |
| 20260508091554 | 5 | 0 | 0.0 | 3.2 | 0.00 | 0.00 | 0.00 | 71 | 1015.6 |
| 20260508090032 | 5 | 0 | 0.0 | 0.0 | 0.00 | 0.00 | 0.00 | 66 | 1015.7 |
| 20260508084532 | 5 | 0 | 0.0 | 11.3 | 0.00 | 0.03 | 0.00 | 66 | 1015.6 |
| 20260508083037 | 5 | 0 | 0.0 | 0.0 | 0.00 | 0.03 | 0.00 | 64 | 1015.7 |
| 20260508081529 | 6 | 0 | 0.0 | 12.9 | 0.00 | 0.03 | 0.00 | 59 | 1015.8 |
| 20260508080028 | 6 | 186 | 0.0 | 16.1 | 0.00 | 0.03 | 0.00 | 60 | 1016.1 |
| 20260508074530 | 5 | 0 | 0.0 | 0.0 | 0.00 | 0.15 | 0.03 | 67 | 1016.1 |
| 20260508073035 | 6 | 0 | 0.0 | 0.0 | 0.00 | 0.15 | 0.03 | 61 | 1016.3 |
| 20260508071532 | 6 | 0 | 0.0 | 8.0 | 0.00 | 0.15 | 0.03 | 59 | 1016.5 |
| 20260508070032 | 6 | 0 | 0.0 | 1.6 | 0.00 | 0.15 | 0.03 | 59 | 1016.5 |
| 20260508064532 | 6 | 0 | 0.0 | 4.8 | 0.00 | 0.28 | 0.03 | 60 | 1016.5 |
| 20260508063055 | 6 | 121 | 0.0 | 17.7 | 0.00 | 0.28 | 0.03 | 60 | 1016.4 |
| 20260508061531 | 6 | 0 | 0.0 | 19.3 | 0.00 | 0.28 | 0.03 | 58 | 1016.5 |
| 20260508060029 | 6 | 0 | 1.6 | 20.9 | 0.00 | 0.28 | 0.03 | 59 | 1016.4 |
| 20260508054532 | 7 | 162 | 1.6 | 14.5 | 0.00 | 0.36 | 0.03 | 58 | 1016.5 |
| 20260508053043 | 7 | 212 | 0.0 | 11.3 | 0.00 | 0.36 | 0.03 | 57 | 1016.4 |
| 20260508051537 | 7 | 0 | 0.0 | 12.9 | 0.00 | 0.36 | 0.03 | 59 | 1016.6 |
| 20260508050030 | 7 | 0 | 0.0 | 16.1 | 0.00 | 0.36 | 0.03 | 59 | 1016.6 |
| 20260508044530 | 7 | 0 | 0.0 | 6.4 | 0.00 | 0.56 | 0.03 | 58 | 1016.8 |
| 20260508043029 | 7 | 0 | 0.0 | 1.6 | 0.00 | 0.56 | 0.03 | 57 | 1016.7 |
| 20260508041532 | 7 | 0 | 0.0 | 1.6 | 0.00 | 0.56 | 0.03 | 57 | 1017.0 |
| 20260508040031 | 7 | 0 | 0.0 | 9.7 | 0.00 | 0.56 | 0.03 | 57 | 1017.1 |
| 20260508034530 | 7 | 0 | 3.2 | 14.5 | 0.00 | 0.64 | 0.03 | 57 | 1017.1 |
| 20260508033034 | 7 | 0 | 0.0 | 12.9 | 0.00 | 0.64 | 0.03 | 58 | 1017.3 |
| 20260508031529 | 7 | 0 | 0.0 | 0.0 | 0.00 | 0.64 | 0.03 | 61 | 1017.4 |
| 20260508030036 | 6 | 0 | 0.0 | 0.0 | 0.00 | 0.64 | 0.03 | 70 | 1017.5 |
| 20260508024531 | 7 | 0 | 0.0 | 9.7 | 0.00 | 0.71 | 0.03 | 67 | 1017.5 |
| 20260508023034 | 6 | 0 | 0.0 | 0.0 | 0.00 | 0.71 | 0.03 | 71 | 1017.8 |
| 20260508021533 | 6 | 0 | 0.0 | 0.0 | 0.00 | 0.71 | 0.03 | 71 | 1017.9 |
| 20260508020030 | 6 | 0 | 0.0 | 0.0 | 0.00 | 0.71 | 0.03 | 70 | 1018.0 |
| 20260508014531 | 6 | 0 | 0.0 | 8.0 | 0.00 | 0.71 | 0.03 | 70 | 1018.1 |
| 20260508013030 | 6 | 0 | 0.0 | 0.0 | 0.00 | 0.71 | 0.03 | 69 | 1018.2 |